User: anonymous   Login
Location: Le Petit-Vavre
(46.5081°N, 1.5239°E)
Time: 16:25:01
(UTC+00:00)
Language:

CZ-2C R/B - Orbit

View from above orbital plane
View from above orbital plane
View from above satellite
View from above satellite

Ground track
Ground track

The orbit data is extracted from the following two-line orbital elements,

1 39364U 13059B   21268.06521043  .00003161  00000-0  11384-3 0  9994
2 39364  97.2019 325.4362 0045721 196.4246 163.5516 15.28311972439687
Epoch (UTC): 25 September 2021 01:33:54
Eccentricity: 0.0045721
inclination: 97.2019°
perigee height: 449 km
apogee height: 512 km
right ascension of ascending node: 325.4362°
argument of perigee: 196.4246°
revolutions per day: 15.28311972
mean anomaly at epoch: 163.5516°
orbit number at epoch: 43968

The dashed part of the orbit path shows where the satellite is in the earth's shadow,  

DLR